Tabellarische Ansicht des 19.8.2009


Die einzelnen Werte des Tages

Uhrzeit Temperatur Luftdruck Luftfeuchte Wind Hi-Wind Taupunkt THW Index Wind Chill Heat Index Solar- strahlung Regen

00:00

14.2 C

1019.1 hpa

84 %

1.6 km/h aus 111

3.2 km/h aus NNW

11.6 C

14.2 C

14.2 C

14.2 C

0 W/m

0.00 mm

00:05

14.2 C

1019.1 hpa

85 %

1.6 km/h aus 110

3.2 km/h aus NNW

11.7 C

14.1 C

14.2 C

14.1 C

0 W/m

0.00 mm

00:10

14.1 C

1019.1 hpa

85 %

0.0 km/h aus 113

1.6 km/h aus NNW

11.6 C

14.1 C

14.1 C

14.1 C

0 W/m

0.00 mm

00:15

14.1 C

1019.2 hpa

85 %

0.0 km/h aus 113

3.2 km/h aus NNW

11.6 C

14.0 C

14.1 C

14.0 C

0 W/m

0.00 mm

00:20

14.0 C

1019.2 hpa

85 %

0.0 km/h aus 111

1.6 km/h aus NNW

11.5 C

13.9 C

14.0 C

13.9 C

0 W/m

0.00 mm

00:25

13.9 C

1019.2 hpa

85 %

0.0 km/h aus 109

0.0 km/h aus ---

11.5 C

13.9 C

13.9 C

13.9 C

0 W/m

0.00 mm

00:30

13.9 C

1019.4 hpa

85 %

0.0 km/h aus 112

0.0 km/h aus ---

11.4 C

13.8 C

13.9 C

13.8 C

0 W/m

0.00 mm

00:35

13.8 C

1019.4 hpa

86 %

0.0 km/h aus 112

1.6 km/h aus NNW

11.5 C

13.8 C

13.8 C

13.8 C

0 W/m

0.00 mm

00:40

13.8 C

1019.4 hpa

87 %

0.0 km/h aus 107

0.0 km/h aus ---

11.7 C

13.8 C

13.8 C

13.8 C

0 W/m

0.00 mm

00:45

13.7 C

1019.5 hpa

86 %

0.0 km/h aus 109

0.0 km/h aus ---

11.4 C

13.7 C

13.7 C

13.7 C

0 W/m

0.00 mm

00:50

13.7 C

1019.5 hpa

86 %

1.6 km/h aus 111

4.8 km/h aus NNW

11.4 C

13.7 C

13.7 C

13.7 C

0 W/m

0.00 mm

00:55

13.7 C

1019.5 hpa

86 %

1.6 km/h aus 113

4.8 km/h aus NNW

11.4 C

13.6 C

13.7 C

13.6 C

0 W/m

0.00 mm

01:00

13.7 C

1019.4 hpa

86 %

0.0 km/h aus 114

1.6 km/h aus NNW

11.4 C

13.6 C

13.7 C

13.6 C

0 W/m

0.00 mm

01:05

13.7 C

1019.4 hpa

86 %

0.0 km/h aus 112

1.6 km/h aus NNW

11.4 C

13.6 C

13.7 C

13.6 C

0 W/m

0.00 mm

01:10

13.8 C

1019.4 hpa

86 %

0.0 km/h aus 109

1.6 km/h aus NNW

11.5 C

13.7 C

13.8 C

13.7 C

0 W/m

0.00 mm

01:15

13.8 C

1019.4 hpa

86 %

0.0 km/h aus 117

1.6 km/h aus NNW

11.5 C

13.7 C

13.8 C

13.7 C

0 W/m

0.00 mm

01:20

13.8 C

1019.4 hpa

86 %

0.0 km/h aus 107

0.0 km/h aus ---

11.5 C

13.7 C

13.8 C

13.7 C

0 W/m

0.00 mm

01:25

13.7 C

1019.4 hpa

86 %

0.0 km/h aus 111

1.6 km/h aus NNW

11.4 C

13.7 C

13.7 C

13.7 C

0 W/m

0.00 mm

01:30

13.7 C

1019.5 hpa

86 %

0.0 km/h aus 111

1.6 km/h aus NNW

11.4 C

13.6 C

13.7 C

13.6 C

0 W/m

0.00 mm

01:35

13.7 C

1019.5 hpa

86 %

0.0 km/h aus 113

3.2 km/h aus NNW

11.4 C

13.7 C

13.7 C

13.7 C

0 W/m

0.00 mm

01:40

13.6 C

1019.5 hpa

86 %

0.0 km/h aus 112

1.6 km/h aus NNW

11.3 C

13.6 C

13.6 C

13.6 C

0 W/m

0.00 mm

01:45

13.6 C

1019.3 hpa

86 %

0.0 km/h aus 111

3.2 km/h aus NNW

11.3 C

13.6 C

13.6 C

13.6 C

0 W/m

0.00 mm

01:50

13.6 C

1019.3 hpa

86 %

0.0 km/h aus 106

3.2 km/h aus NNW

11.3 C

13.6 C

13.6 C

13.6 C

0 W/m

0.00 mm

01:55

13.6 C

1019.3 hpa

86 %

3.2 km/h aus 108

9.7 km/h aus ESE

11.3 C

13.6 C

13.6 C

13.6 C

0 W/m

0.00 mm

02:00

13.6 C

1019.1 hpa

87 %

4.8 km/h aus 112

9.7 km/h aus SE

11.4 C

13.6 C

13.6 C

13.6 C

0 W/m

0.00 mm

02:05

13.7 C

1019.1 hpa

86 %

4.8 km/h aus 110

8.0 km/h aus SE

11.4 C

13.6 C

13.7 C

13.6 C

0 W/m

0.00 mm

02:10

13.7 C

1019.1 hpa

86 %

4.8 km/h aus 111

9.7 km/h aus SE

11.4 C

13.7 C

13.7 C

13.7 C

0 W/m

0.00 mm

02:15

13.8 C

1019.1 hpa

86 %

6.4 km/h aus 105

9.7 km/h aus SE

11.5 C

13.7 C

13.8 C

13.7 C

0 W/m

0.00 mm

02:20

13.8 C

1019.1 hpa

86 %

3.2 km/h aus 110

6.4 km/h aus SE

11.5 C

13.8 C

13.8 C

13.8 C

0 W/m

0.00 mm

02:25

13.8 C

1019.1 hpa

85 %

1.6 km/h aus 110

4.8 km/h aus SE

11.3 C

13.7 C

13.8 C

13.7 C

0 W/m

0.00 mm

02:30

13.7 C

1019.2 hpa

86 %

0.0 km/h aus 109

3.2 km/h aus SE

11.4 C

13.6 C

13.7 C

13.6 C

0 W/m

0.00 mm

02:35

13.6 C

1019.2 hpa

86 %

0.0 km/h aus 107

0.0 km/h aus ---

11.3 C

13.5 C

13.6 C

13.5 C

0 W/m

0.00 mm

02:40

13.4 C

1019.2 hpa

86 %

0.0 km/h aus 109

1.6 km/h aus SE

11.1 C

13.4 C

13.4 C

13.4 C

0 W/m

0.00 mm

02:45

13.3 C

1019.2 hpa

87 %

0.0 km/h aus 115

0.0 km/h aus ---

11.2 C

13.3 C

13.3 C

13.3 C

0 W/m

0.00 mm

02:50

13.3 C

1019.2 hpa

87 %

0.0 km/h aus 110

1.6 km/h aus SE

11.2 C

13.3 C

13.3 C

13.3 C

0 W/m

0.00 mm

02:55

13.2 C

1019.2 hpa

87 %

0.0 km/h aus 106

0.0 km/h aus ---

11.1 C

13.2 C

13.2 C

13.2 C

0 W/m

0.00 mm

03:00

13.3 C

1019.2 hpa

88 %

0.0 km/h aus 113

1.6 km/h aus SE

11.3 C

13.3 C

13.3 C

13.3 C

0 W/m

0.00 mm

03:05

13.3 C

1019.2 hpa

88 %

0.0 km/h aus 111

0.0 km/h aus ---

11.3 C

13.3 C

13.3 C

13.3 C

0 W/m

0.00 mm

03:10

13.3 C

1019.2 hpa

88 %

0.0 km/h aus 111

1.6 km/h aus SE

11.3 C

13.3 C

13.3 C

13.3 C

0 W/m

0.00 mm

03:15

13.2 C

1019.2 hpa

88 %

0.0 km/h aus 114

3.2 km/h aus SE

11.3 C

13.2 C

13.2 C

13.2 C

0 W/m

0.00 mm

03:20

13.2 C

1019.2 hpa

88 %

0.0 km/h aus 110

3.2 km/h aus SE

11.2 C

13.2 C

13.2 C

13.2 C

0 W/m

0.00 mm

03:25

13.2 C

1019.2 hpa

88 %

1.6 km/h aus 106

3.2 km/h aus SE

11.2 C

13.2 C

13.2 C

13.2 C

0 W/m

0.00 mm

03:30

13.1 C

1019.5 hpa

88 %

0.0 km/h aus 110

3.2 km/h aus SE

11.1 C

13.1 C

13.1 C

13.1 C

0 W/m

0.00 mm

03:35

13.0 C

1019.5 hpa

88 %

0.0 km/h aus 111

0.0 km/h aus ---

11.1 C

13.0 C

13.0 C

13.0 C

0 W/m

0.00 mm

03:40

12.9 C

1019.5 hpa

88 %

0.0 km/h aus 115

1.6 km/h aus SE

11.0 C

12.9 C

12.9 C

12.9 C

0 W/m

0.00 mm

03:45

12.9 C

1019.5 hpa

88 %

0.0 km/h aus 111

3.2 km/h aus SE

10.9 C

12.9 C

12.9 C

12.9 C

0 W/m

0.00 mm

03:50

12.8 C

1019.5 hpa

88 %

0.0 km/h aus 111

1.6 km/h aus SE

10.9 C

12.8 C

12.8 C

12.8 C

0 W/m

0.00 mm

03:55

12.8 C

1019.5 hpa

89 %

0.0 km/h aus 108

3.2 km/h aus SE

11.0 C

12.8 C

12.8 C

12.8 C

0 W/m

0.00 mm

04:00

12.7 C

1019.5 hpa

89 %

1.6 km/h aus 111

3.2 km/h aus SE

11.0 C

12.8 C

12.7 C

12.8 C

0 W/m

0.00 mm

04:05

12.7 C

1019.5 hpa

89 %

0.0 km/h aus 110

1.6 km/h aus SE

10.9 C

12.7 C

12.7 C

12.7 C

0 W/m

0.00 mm

04:10

12.6 C

1019.5 hpa

89 %

0.0 km/h aus 115

0.0 km/h aus ---

10.8 C

12.6 C

12.6 C

12.6 C

0 W/m

0.00 mm

04:15

12.4 C

1019.5 hpa

89 %

0.0 km/h aus 112

0.0 km/h aus ---

10.7 C

12.5 C

12.4 C

12.5 C

0 W/m

0.00 mm

04:20

12.3 C

1019.5 hpa

90 %

0.0 km/h aus 113

0.0 km/h aus ---

10.7 C

12.4 C

12.3 C

12.4 C

0 W/m

0.00 mm

04:25

12.2 C

1019.5 hpa

90 %

0.0 km/h aus 112

0.0 km/h aus ---

10.6 C

12.3 C

12.2 C

12.3 C

0 W/m

0.00 mm

04:30

12.2 C

1019.4 hpa

90 %

0.0 km/h aus 107

0.0 km/h aus ---

10.6 C

12.2 C

12.2 C

12.2 C

0 W/m

0.00 mm

04:35

12.1 C

1019.4 hpa

90 %

0.0 km/h aus 111

0.0 km/h aus ---

10.5 C

12.1 C

12.1 C

12.1 C

0 W/m

0.00 mm

04:40

11.9 C

1019.4 hpa

90 %

0.0 km/h aus 115

3.2 km/h aus SE

10.3 C

11.9 C

11.9 C

11.9 C

0 W/m

0.00 mm

04:45

11.7 C

1019.5 hpa

90 %

1.6 km/h aus 109

3.2 km/h aus SE

10.1 C

11.7 C

11.7 C

11.7 C

0 W/m

0.00 mm

04:50

11.6 C

1019.5 hpa

91 %

0.0 km/h aus 106

1.6 km/h aus SE

10.2 C

11.7 C

11.6 C

11.7 C

0 W/m

0.00 mm

04:55

11.6 C

1019.5 hpa

91 %

0.0 km/h aus 109

3.2 km/h aus SE

10.2 C

11.7 C

11.6 C

11.7 C

0 W/m

0.00 mm

05:00

11.7 C

1019.3 hpa

92 %

0.0 km/h aus 115

1.6 km/h aus SE

10.5 C

11.8 C

11.7 C

11.8 C

0 W/m

0.00 mm

05:05

11.8 C

1019.3 hpa

92 %

0.0 km/h aus 114

0.0 km/h aus ---

10.5 C

11.9 C

11.8 C

11.9 C

0 W/m

0.00 mm

05:10

11.8 C

1019.3 hpa

92 %

0.0 km/h aus 109

3.2 km/h aus SE

10.5 C

11.9 C

11.8 C

11.9 C

0 W/m

0.00 mm

05:15

11.8 C

1019.4 hpa

92 %

1.6 km/h aus 110

4.8 km/h aus SE

10.6 C

11.9 C

11.8 C

11.9 C

0 W/m

0.00 mm

05:20

11.9 C

1019.4 hpa

92 %

0.0 km/h aus 110

1.6 km/h aus SE

10.6 C

12.0 C

11.9 C

12.0 C

0 W/m

0.00 mm

05:25

11.8 C

1019.4 hpa

92 %

0.0 km/h aus 109

0.0 km/h aus ---

10.6 C

11.9 C

11.8 C

11.9 C

0 W/m

0.00 mm

05:30

11.8 C

1019.2 hpa

92 %

0.0 km/h aus 114

0.0 km/h aus ---

10.5 C

11.9 C

11.8 C

11.9 C

0 W/m

0.00 mm

05:35

11.7 C

1019.2 hpa

92 %

0.0 km/h aus 105

0.0 km/h aus ---

10.4 C

11.8 C

11.7 C

11.8 C

0 W/m

0.00 mm

05:40

11.6 C

1019.2 hpa

92 %

0.0 km/h aus 112

0.0 km/h aus ---

10.3 C

11.7 C

11.6 C

11.7 C

0 W/m

0.00 mm

05:45

11.4 C

1019.2 hpa

92 %

0.0 km/h aus 107

0.0 km/h aus ---

10.2 C

11.6 C

11.4 C

11.6 C

0 W/m

0.00 mm

05:50

11.4 C

1019.2 hpa

92 %

0.0 km/h aus 109

0.0 km/h aus ---

10.1 C

11.5 C

11.4 C

11.5 C

0 W/m

0.00 mm

05:55

11.4 C

1019.2 hpa

92 %

0.0 km/h aus 109

0.0 km/h aus ---

10.1 C

11.5 C

11.4 C

11.5 C

0 W/m

0.00 mm

06:00

11.3 C

1019.4 hpa

92 %

0.0 km/h aus 111

0.0 km/h aus ---

10.1 C

11.4 C

11.3 C

11.4 C

0 W/m

0.00 mm

06:05

11.3 C

1019.4 hpa

92 %

0.0 km/h aus 103

0.0 km/h aus ---

10.1 C

11.4 C

11.3 C

11.4 C

0 W/m

0.00 mm

06:10

11.4 C

1019.4 hpa

93 %

0.0 km/h aus 111

0.0 km/h aus ---

10.3 C

11.5 C

11.4 C

11.5 C

0 W/m

0.00 mm

06:15

11.4 C

1019.3 hpa

93 %

0.0 km/h aus 112

1.6 km/h aus SE

10.4 C

11.6 C

11.4 C

11.6 C

0 W/m

0.00 mm

06:20

11.4 C

1019.3 hpa

93 %

0.0 km/h aus 109

0.0 km/h aus ---

10.4 C

11.6 C

11.4 C

11.6 C

0 W/m

0.00 mm

06:25

11.3 C

1019.3 hpa

92 %

0.0 km/h aus 112

0.0 km/h aus ---

10.0 C

11.4 C

11.3 C

11.4 C

0 W/m

0.00 mm

06:30

11.2 C

1019.2 hpa

92 %

0.0 km/h aus 113

0.0 km/h aus ---

10.0 C

11.3 C

11.2 C

11.3 C

0 W/m

0.00 mm

06:35

11.3 C

1019.2 hpa

93 %

0.0 km/h aus 108

0.0 km/h aus ---

10.2 C

11.4 C

11.3 C

11.4 C

0 W/m

0.00 mm

06:40

11.3 C

1019.2 hpa

93 %

0.0 km/h aus 111

0.0 km/h aus ---

10.2 C

11.4 C

11.3 C

11.4 C

0 W/m

0.00 mm

06:45

11.5 C

1019.2 hpa

93 %

0.0 km/h aus 110

1.6 km/h aus SE

10.4 C

11.6 C

11.5 C

11.6 C

0 W/m

0.00 mm

06:50

11.6 C

1019.2 hpa

93 %

1.6 km/h aus 109

3.2 km/h aus SE

10.5 C

11.7 C

11.6 C

11.7 C

0 W/m

0.00 mm

06:55

11.7 C

1019.2 hpa

93 %

3.2 km/h aus 102

6.4 km/h aus SE

10.6 C

11.8 C

11.7 C

11.8 C

0 W/m

0.00 mm

07:00

11.9 C

1019.1 hpa

94 %

3.2 km/h aus 109

6.4 km/h aus SE

11.0 C

12.0 C

11.9 C

12.0 C

0 W/m

0.00 mm

07:05

12.2 C

1019.1 hpa

94 %

3.2 km/h aus 104

4.8 km/h aus SE

11.2 C

12.3 C

12.2 C

12.3 C

0 W/m

0.00 mm

07:10

12.3 C

1019.1 hpa

94 %

1.6 km/h aus 107

4.8 km/h aus SE

11.4 C

12.4 C

12.3 C

12.4 C

0 W/m

0.00 mm

07:15

12.6 C

1019.1 hpa

93 %

0.0 km/h aus 110

1.6 km/h aus SE

11.5 C

12.7 C

12.6 C

12.7 C

0 W/m

0.00 mm

07:20

12.8 C

1019.1 hpa

93 %

0.0 km/h aus 112

3.2 km/h aus SE

11.7 C

12.9 C

12.8 C

12.9 C

0 W/m

0.00 mm

07:25

13.0 C

1019.1 hpa

93 %

1.6 km/h aus 110

6.4 km/h aus SE

11.9 C

13.1 C

13.0 C

13.1 C

0 W/m

0.00 mm

07:30

13.3 C

1019.0 hpa

92 %

4.8 km/h aus 108

8.0 km/h aus SE

12.1 C

13.4 C

13.3 C

13.4 C

0 W/m

0.00 mm

07:35

13.8 C

1019.0 hpa

91 %

4.8 km/h aus 111

8.0 km/h aus SE

12.3 C

13.8 C

13.8 C

13.8 C

0 W/m

0.00 mm

07:40

14.3 C

1019.0 hpa

88 %

4.8 km/h aus 105

8.0 km/h aus SE

12.3 C

14.3 C

14.3 C

14.3 C

0 W/m

0.00 mm

07:45

14.8 C

1019.1 hpa

85 %

4.8 km/h aus 104

8.0 km/h aus SE

12.3 C

14.8 C

14.8 C

14.8 C

0 W/m

0.00 mm

07:50

15.2 C

1019.1 hpa

82 %

4.8 km/h aus 101

9.7 km/h aus SE

12.2 C

15.2 C

15.2 C

15.2 C

0 W/m

0.00 mm

07:55

15.7 C

1019.1 hpa

79 %

6.4 km/h aus 108

11.3 km/h aus ESE

12.1 C

15.7 C

15.7 C

15.7 C

0 W/m

0.00 mm

08:00

16.2 C

1019.0 hpa

77 %

4.8 km/h aus 108

8.0 km/h aus ESE

12.1 C

16.1 C

16.2 C

16.1 C

0 W/m

0.00 mm

08:05

16.6 C

1019.0 hpa

75 %

3.2 km/h aus 107

9.7 km/h aus ESE

12.2 C

16.5 C

16.6 C

16.5 C

0 W/m

0.00 mm

08:10

17.1 C

1019.0 hpa

74 %

0.0 km/h aus 113

3.2 km/h aus ESE

12.4 C

16.9 C

17.1 C

16.9 C

0 W/m

0.00 mm

08:15

17.4 C

1019.1 hpa

74 %

3.2 km/h aus 110

6.4 km/h aus ESE

12.8 C

17.4 C

17.4 C

17.4 C

0 W/m

0.00 mm

08:20

17.7 C

1019.1 hpa

73 %

3.2 km/h aus 108

8.0 km/h aus ESE

12.8 C

17.6 C

17.7 C

17.6 C

0 W/m

0.00 mm

08:25

17.9 C

1019.1 hpa

73 %

3.2 km/h aus 112

6.4 km/h aus ESE

13.0 C

17.9 C

17.9 C

17.9 C

0 W/m

0.00 mm

08:30

18.3 C

1019.1 hpa

71 %

6.4 km/h aus 112

12.9 km/h aus SE

13.0 C

18.4 C

18.3 C

18.4 C

0 W/m

0.00 mm

08:35

18.8 C

1019.1 hpa

70 %

6.4 km/h aus 114

11.3 km/h aus SE

13.2 C

18.9 C

18.8 C

18.9 C

0 W/m

0.00 mm

08:40

19.2 C

1019.1 hpa

69 %

4.8 km/h aus 106

11.3 km/h aus SE

13.3 C

19.3 C

19.2 C

19.3 C

0 W/m

0.00 mm

08:45

19.6 C

1019.0 hpa

64 %

8.0 km/h aus 112

19.3 km/h aus SE

12.6 C

19.5 C

19.6 C

19.5 C

0 W/m

0.00 mm

08:50

19.9 C

1019.0 hpa

62 %

6.4 km/h aus 114

14.5 km/h aus SE

12.4 C

19.9 C

19.9 C

19.9 C

0 W/m

0.00 mm

08:55

20.4 C

1019.0 hpa

63 %

8.0 km/h aus 109

16.1 km/h aus SE

13.2 C

20.3 C

20.4 C

20.3 C

0 W/m

0.00 mm

09:00

20.7 C

1019.1 hpa

60 %

6.4 km/h aus 112

16.1 km/h aus SE

12.7 C

20.3 C

20.7 C

20.3 C

0 W/m

0.00 mm

09:05

21.0 C

1019.1 hpa

58 %

8.0 km/h aus 113

17.7 km/h aus SE

12.4 C

20.4 C

21.0 C

20.4 C

0 W/m

0.00 mm

09:10

21.3 C

1019.1 hpa

60 %

6.4 km/h aus 110

11.3 km/h aus SE

13.2 C

20.9 C

21.3 C

20.9 C

0 W/m

0.00 mm

09:15

21.6 C

1019.0 hpa

57 %

8.0 km/h aus 107

17.7 km/h aus SE

12.7 C

21.2 C

21.6 C

21.2 C

0 W/m

0.00 mm

09:20

21.7 C

1019.0 hpa

57 %

8.0 km/h aus 113

16.1 km/h aus S

12.8 C

21.3 C

21.7 C

21.3 C

0 W/m

0.00 mm

09:25

21.8 C

1019.0 hpa

58 %

9.7 km/h aus 113

16.1 km/h aus SSE

13.2 C

21.5 C

21.8 C

21.5 C

0 W/m

0.00 mm

09:30

21.9 C

1019.1 hpa

57 %

9.7 km/h aus 112

22.5 km/h aus SSE

13.0 C

21.6 C

21.9 C

21.6 C

0 W/m

0.00 mm

09:35

22.1 C

1019.1 hpa

54 %

8.0 km/h aus 116

16.1 km/h aus SSE

12.4 C

21.7 C

22.1 C

21.7 C

0 W/m

0.00 mm

09:40

22.3 C

1019.1 hpa

56 %

6.4 km/h aus 115

16.1 km/h aus SSE

13.1 C

22.2 C

22.3 C

22.2 C

0 W/m

0.00 mm

09:45

22.5 C

1019.0 hpa

54 %

8.0 km/h aus 113

17.7 km/h aus SE

12.7 C

22.3 C

22.5 C

22.3 C

0 W/m

0.00 mm

09:50

22.7 C

1019.0 hpa

55 %

11.3 km/h aus 116

17.7 km/h aus SE

13.2 C

22.6 C

22.7 C

22.6 C

0 W/m

0.00 mm

09:55

22.7 C

1019.0 hpa

54 %

9.7 km/h aus 113

19.3 km/h aus SSE

12.9 C

22.6 C

22.7 C

22.6 C

0 W/m

0.00 mm

10:00

22.8 C

1019.1 hpa

54 %

12.9 km/h aus 112

19.3 km/h aus SE

13.0 C

22.5 C

22.6 C

22.8 C

0 W/m

0.00 mm

10:05

22.9 C

1019.1 hpa

54 %

9.7 km/h aus 114

22.5 km/h aus E

13.1 C

22.9 C

22.9 C

22.9 C

0 W/m

0.00 mm

10:10

23.3 C

1019.1 hpa

55 %

6.4 km/h aus 113

11.3 km/h aus E

13.7 C

23.4 C

23.3 C

23.4 C

0 W/m

0.00 mm

10:15

23.4 C

1019.2 hpa

53 %

6.4 km/h aus 114

11.3 km/h aus ESE

13.3 C

23.5 C

23.4 C

23.5 C

0 W/m

0.00 mm

10:20

23.6 C

1019.2 hpa

53 %

8.0 km/h aus 116

16.1 km/h aus E

13.5 C

23.7 C

23.6 C

23.7 C

0 W/m

0.00 mm

10:25

23.6 C

1019.2 hpa

53 %

6.4 km/h aus 115

16.1 km/h aus ENE

13.5 C

23.7 C

23.6 C

23.7 C

0 W/m

0.00 mm

10:30

23.7 C

1019.4 hpa

54 %

6.4 km/h aus 115

14.5 km/h aus ESE

13.9 C

23.9 C

23.7 C

23.9 C

0 W/m

0.00 mm

10:35

24.1 C

1019.4 hpa

53 %

8.0 km/h aus 114

16.1 km/h aus ENE

13.9 C

24.3 C

24.1 C

24.3 C

0 W/m

0.00 mm

10:40

24.2 C

1019.4 hpa

52 %

8.0 km/h aus 115

17.7 km/h aus SSE

13.7 C

24.3 C

24.2 C

24.3 C

0 W/m

0.00 mm

10:45

24.5 C

1019.4 hpa

52 %

9.7 km/h aus 115

17.7 km/h aus E

14.0 C

24.6 C

24.5 C

24.6 C

0 W/m

0.00 mm

10:50

24.6 C

1019.4 hpa

50 %

9.7 km/h aus 114

16.1 km/h aus ENE

13.4 C

24.6 C

24.6 C

24.6 C

0 W/m

0.00 mm

10:55

24.6 C

1019.4 hpa

51 %

8.0 km/h aus 115

16.1 km/h aus ESE

13.7 C

24.6 C

24.6 C

24.6 C

0 W/m

0.00 mm

11:00

24.6 C

1019.4 hpa

51 %

6.4 km/h aus 114

16.1 km/h aus E

13.8 C

24.6 C

24.6 C

24.6 C

0 W/m

0.00 mm

11:05

25.1 C

1019.4 hpa

50 %

8.0 km/h aus 115

17.7 km/h aus SE

13.9 C

24.9 C

25.1 C

24.9 C

0 W/m

0.00 mm

11:10

25.4 C

1019.4 hpa

48 %

11.3 km/h aus 116

22.5 km/h aus SE

13.6 C

25.3 C

25.4 C

25.3 C

0 W/m

0.00 mm

11:15

25.5 C

1019.3 hpa

49 %

11.3 km/h aus 115

22.5 km/h aus SE

14.0 C

25.4 C

25.5 C

25.4 C

0 W/m

0.00 mm

11:20

25.7 C

1019.3 hpa

50 %

11.3 km/h aus 115

20.9 km/h aus SE

14.5 C

25.8 C

25.7 C

25.8 C

0 W/m

0.00 mm

11:25

25.9 C

1019.3 hpa

47 %

12.9 km/h aus 117

25.7 km/h aus SE

13.8 C

25.7 C

25.7 C

25.9 C

0 W/m

0.00 mm

11:30

25.9 C

1019.1 hpa

47 %

11.3 km/h aus 114

17.7 km/h aus S

13.8 C

25.9 C

25.9 C

25.9 C

0 W/m

0.00 mm

11:35

26.2 C

1019.1 hpa

48 %

9.7 km/h aus 116

20.9 km/h aus SE

14.3 C

26.2 C

26.2 C

26.2 C

0 W/m

0.00 mm

11:40

26.8 C

1019.1 hpa

44 %

12.9 km/h aus 116

20.9 km/h aus S

13.5 C

26.3 C

26.6 C

26.5 C

0 W/m

0.00 mm

11:45

26.8 C

1019.1 hpa

45 %

8.0 km/h aus 116

22.5 km/h aus S

13.9 C

26.6 C

26.8 C

26.6 C

0 W/m

0.00 mm

11:50

26.7 C

1019.1 hpa

45 %

8.0 km/h aus 115

19.3 km/h aus ESE

13.8 C

26.5 C

26.7 C

26.5 C

0 W/m

0.00 mm

11:55

26.9 C

1019.1 hpa

46 %

11.3 km/h aus 116

22.5 km/h aus SSE

14.3 C

26.7 C

26.9 C

26.7 C

0 W/m

0.00 mm

12:00

27.0 C

1019.0 hpa

45 %

11.3 km/h aus 116

20.9 km/h aus SSE

14.1 C

26.8 C

27.0 C

26.8 C

0 W/m

0.00 mm

12:05

27.3 C

1019.0 hpa

44 %

12.9 km/h aus 116

24.1 km/h aus S

14.0 C

26.8 C

27.1 C

27.0 C

0 W/m

0.00 mm

12:10

27.4 C

1019.0 hpa

44 %

12.9 km/h aus 114

25.7 km/h aus S

14.1 C

27.0 C

27.2 C

27.2 C

0 W/m

0.00 mm

12:15

27.6 C

1018.9 hpa

44 %

12.9 km/h aus 114

27.4 km/h aus S

14.2 C

27.2 C

27.4 C

27.4 C

0 W/m

0.00 mm

12:20

27.6 C

1018.9 hpa

43 %

12.9 km/h aus 115

27.4 km/h aus SSE

13.9 C

27.2 C

27.4 C

27.4 C

0 W/m

0.00 mm

12:25

27.6 C

1018.9 hpa

42 %

9.7 km/h aus 117

20.9 km/h aus S

13.5 C

27.3 C

27.6 C

27.3 C

0 W/m

0.00 mm

12:30

27.8 C

1018.9 hpa

42 %

16.1 km/h aus 117

22.5 km/h aus SSE

13.7 C

26.8 C

27.1 C

27.6 C

0 W/m

0.00 mm

12:35

27.9 C

1018.9 hpa

39 %

11.3 km/h aus 115

20.9 km/h aus S

12.7 C

27.4 C

27.9 C

27.4 C

0 W/m

0.00 mm

12:40

28.1 C

1018.9 hpa

41 %

12.9 km/h aus 117

24.1 km/h aus S

13.6 C

27.7 C

27.9 C

27.8 C

0 W/m

0.00 mm

12:45

28.3 C

1018.5 hpa

41 %

17.7 km/h aus 115

27.4 km/h aus SSE

13.8 C

27.4 C

27.5 C

28.3 C

0 W/m

0.00 mm

12:50

28.6 C

1018.5 hpa

39 %

14.5 km/h aus 116

20.9 km/h aus SSW

13.2 C

28.0 C

28.1 C

28.4 C

0 W/m

0.00 mm

12:55

28.6 C

1018.5 hpa

40 %

16.1 km/h aus 117

25.7 km/h aus S

13.7 C

28.0 C

28.0 C

28.6 C

0 W/m

0.00 mm

13:00

28.6 C

1018.5 hpa

39 %

12.9 km/h aus 116

24.1 km/h aus SSE

13.3 C

28.3 C

28.4 C

28.5 C

0 W/m

0.00 mm

13:05

28.4 C

1018.5 hpa

38 %

14.5 km/h aus 116

27.4 km/h aus SE

12.7 C

27.6 C

27.9 C

28.1 C

0 W/m

0.00 mm

13:10

28.5 C

1018.5 hpa

38 %

12.9 km/h aus 116

25.7 km/h aus S

12.8 C

28.1 C

28.3 C

28.2 C

0 W/m

0.00 mm

13:15

28.7 C

1018.4 hpa

39 %

11.3 km/h aus 117

20.9 km/h aus S

13.4 C

28.7 C

28.7 C

28.7 C

0 W/m

0.00 mm

13:20

29.0 C

1018.4 hpa

39 %

11.3 km/h aus 114

24.1 km/h aus SSW

13.6 C

29.1 C

29.0 C

29.1 C

0 W/m

0.00 mm

13:25

29.3 C

1018.4 hpa

37 %

11.3 km/h aus 116

22.5 km/h aus SSE

13.1 C

29.1 C

29.3 C

29.1 C

0 W/m

0.00 mm

13:30

28.9 C

1018.3 hpa

36 %

12.9 km/h aus 117

22.5 km/h aus SE

12.4 C

28.5 C

28.8 C

28.7 C

0 W/m

0.00 mm

13:35

29.1 C

1018.3 hpa

38 %

12.9 km/h aus 116

22.5 km/h aus S

13.3 C

28.8 C

28.9 C

29.0 C

0 W/m

0.00 mm

13:40

29.6 C

1018.3 hpa

38 %

16.1 km/h aus 114

22.5 km/h aus S

13.7 C

28.9 C

29.1 C

29.4 C

0 W/m

0.00 mm

13:45

29.7 C

1018.3 hpa

37 %

17.7 km/h aus 117

30.6 km/h aus S

13.4 C

28.8 C

29.1 C

29.4 C

0 W/m

0.00 mm

13:50

29.7 C

1018.3 hpa

37 %

14.5 km/h aus 117

24.1 km/h aus SE

13.5 C

29.2 C

29.4 C

29.5 C

0 W/m

0.00 mm

13:55

29.7 C

1018.3 hpa

35 %

11.3 km/h aus 117

24.1 km/h aus SSE

12.6 C

29.3 C

29.7 C

29.3 C

0 W/m

0.00 mm

14:00

29.6 C

1018.0 hpa

38 %

14.5 km/h aus 115

29.0 km/h aus S

13.8 C

29.2 C

29.3 C

29.5 C

0 W/m

0.00 mm

14:05

29.3 C

1018.0 hpa

35 %

9.7 km/h aus 117

19.3 km/h aus SSE

12.2 C

28.8 C

29.3 C

28.8 C

0 W/m

0.00 mm

14:10

29.7 C

1018.0 hpa

36 %

12.9 km/h aus 117

24.1 km/h aus ESE

13.0 C

29.2 C

29.6 C

29.3 C

0 W/m

0.00 mm

14:15

30.1 C

1017.9 hpa

35 %

11.3 km/h aus 117

19.3 km/h aus S

13.0 C

29.7 C

30.1 C

29.7 C

0 W/m

0.00 mm

14:20

30.2 C

1017.9 hpa

36 %

12.9 km/h aus 117

22.5 km/h aus SE

13.4 C

29.8 C

30.1 C

29.9 C

0 W/m

0.00 mm

14:25

29.9 C

1017.9 hpa

36 %

9.7 km/h aus 114

19.3 km/h aus SSE

13.2 C

29.7 C

29.9 C

29.7 C

0 W/m

0.00 mm

14:30

30.0 C

1017.9 hpa

38 %

11.3 km/h aus 116

20.9 km/h aus S

14.1 C

29.9 C

30.0 C

29.9 C

0 W/m

0.00 mm

14:35

30.1 C

1017.9 hpa

37 %

14.5 km/h aus 116

24.1 km/h aus SE

13.8 C

29.6 C

29.8 C

29.9 C

0 W/m

0.00 mm

14:40

29.9 C

1017.9 hpa

36 %

11.3 km/h aus 117

22.5 km/h aus SE

13.2 C

29.7 C

29.9 C

29.7 C

0 W/m

0.00 mm

14:45

29.9 C

1017.9 hpa

39 %

11.3 km/h aus 116

20.9 km/h aus SE

14.5 C

29.9 C

29.9 C

29.9 C

0 W/m

0.00 mm

14:50

30.2 C

1017.9 hpa

35 %

8.0 km/h aus 117

20.9 km/h aus SE

13.0 C

29.8 C

30.2 C

29.8 C

0 W/m

0.00 mm

14:55

30.2 C

1017.9 hpa

36 %

8.0 km/h aus 117

19.3 km/h aus S

13.4 C

29.9 C

30.2 C

29.9 C

0 W/m

0.00 mm

15:00

30.3 C

1017.9 hpa

36 %

14.5 km/h aus 117

30.6 km/h aus S

13.6 C

29.8 C

30.1 C

30.1 C

0 W/m

0.00 mm

15:05

30.1 C

1017.9 hpa

36 %

8.0 km/h aus 116

27.4 km/h aus S

13.4 C

29.8 C

30.1 C

29.8 C

0 W/m

0.00 mm

15:10

30.1 C

1017.9 hpa

35 %

8.0 km/h aus 115

24.1 km/h aus SSE

12.9 C

29.7 C

30.1 C

29.7 C

0 W/m

0.00 mm

15:15

30.2 C

1017.8 hpa

37 %

12.9 km/h aus 117

29.0 km/h aus ESE

13.9 C

29.9 C

30.1 C

30.1 C

0 W/m

0.00 mm

15:20

30.3 C

1017.8 hpa

36 %

9.7 km/h aus 116

22.5 km/h aus ESE

13.6 C

30.1 C

30.3 C

30.1 C

0 W/m

0.00 mm

15:25

30.4 C

1017.8 hpa

34 %

8.0 km/h aus 116

20.9 km/h aus ESE

12.8 C

29.9 C

30.4 C

29.9 C

0 W/m

0.00 mm

15:30

30.2 C

1017.5 hpa

36 %

4.8 km/h aus 117

12.9 km/h aus ESE

13.5 C

29.9 C

30.2 C

29.9 C

0 W/m

0.00 mm

15:35

30.2 C

1017.5 hpa

35 %

11.3 km/h aus 115

25.7 km/h aus SSE

13.1 C

29.8 C

30.2 C

29.8 C

0 W/m

0.00 mm

15:40

30.6 C

1017.5 hpa

34 %

11.3 km/h aus 116

19.3 km/h aus SSE

12.9 C

30.0 C

30.6 C

30.0 C

0 W/m

0.00 mm

15:45

30.6 C

1017.4 hpa

37 %

11.3 km/h aus 116

24.1 km/h aus SSW

14.3 C

30.4 C

30.6 C

30.4 C

0 W/m

0.00 mm

15:50

30.7 C

1017.4 hpa

35 %

11.3 km/h aus 117

20.9 km/h aus SSW

13.5 C

30.2 C

30.7 C

30.2 C

0 W/m

0.00 mm

15:55

30.6 C

1017.4 hpa

36 %

8.0 km/h aus 116

20.9 km/h aus SSW

13.8 C

30.3 C

30.6 C

30.3 C

0 W/m

0.00 mm

16:00

30.8 C

1017.4 hpa

37 %

14.5 km/h aus 117

22.5 km/h aus SSE

14.4 C

30.3 C

30.6 C

30.5 C

0 W/m

0.00 mm

16:05

30.7 C

1017.4 hpa

35 %

8.0 km/h aus 117

16.1 km/h aus S

13.5 C

30.2 C

30.7 C

30.2 C

0 W/m

0.00 mm

16:10

30.6 C

1017.4 hpa

36 %

8.0 km/h aus 113

19.3 km/h aus SSE

13.8 C

30.3 C

30.6 C

30.3 C

0 W/m

0.00 mm

16:15

30.8 C

1017.3 hpa

36 %

14.5 km/h aus 116

22.5 km/h aus S

14.0 C

30.3 C

30.7 C

30.4 C

0 W/m

0.00 mm

16:20

30.9 C

1017.3 hpa

36 %

9.7 km/h aus 116

20.9 km/h aus SE

14.1 C

30.5 C

30.9 C

30.5 C

0 W/m

0.00 mm

16:25

30.8 C

1017.3 hpa

35 %

9.7 km/h aus 117

17.7 km/h aus SSE

13.5 C

30.2 C

30.8 C

30.2 C

0 W/m

0.00 mm

16:30

30.8 C

1017.1 hpa

35 %

9.7 km/h aus 117

17.7 km/h aus S

13.6 C

30.3 C

30.8 C

30.3 C

0 W/m

0.00 mm

16:35

30.6 C

1017.1 hpa

34 %

9.7 km/h aus 115

20.9 km/h aus SW

12.9 C

30.0 C

30.6 C

30.0 C

0 W/m

0.00 mm

16:40

30.6 C

1017.1 hpa

36 %

11.3 km/h aus 116

22.5 km/h aus SE

13.8 C

30.3 C

30.6 C

30.3 C

0 W/m

0.00 mm

16:45

30.8 C

1016.9 hpa

36 %

9.7 km/h aus 117

19.3 km/h aus ESE

14.0 C

30.4 C

30.8 C

30.4 C

0 W/m

0.00 mm

16:50

30.9 C

1016.9 hpa

35 %

11.3 km/h aus 117

20.9 km/h aus SE

13.7 C

30.3 C

30.9 C

30.3 C

0 W/m

0.00 mm

16:55

30.7 C

1016.9 hpa

35 %

9.7 km/h aus 116

20.9 km/h aus E

13.5 C

30.2 C

30.7 C

30.2 C

0 W/m

0.00 mm

17:00

30.6 C

1016.9 hpa

35 %

11.3 km/h aus 116

19.3 km/h aus SE

13.4 C

30.2 C

30.6 C

30.2 C

0 W/m

0.00 mm

17:05

30.6 C

1016.9 hpa

36 %

6.4 km/h aus 116

17.7 km/h aus SE

13.8 C

30.3 C

30.6 C

30.3 C

0 W/m

0.00 mm

17:10

30.9 C

1016.9 hpa

34 %

8.0 km/h aus 117

16.1 km/h aus S

13.3 C

30.2 C

30.9 C

30.2 C

0 W/m

0.00 mm

17:15

30.6 C

1016.8 hpa

36 %

6.4 km/h aus 115

19.3 km/h aus S

13.8 C

30.3 C

30.6 C

30.3 C

0 W/m

0.00 mm

17:20

30.6 C

1016.8 hpa

35 %

9.7 km/h aus 115

17.7 km/h aus SSE

13.4 C

30.2 C

30.6 C

30.2 C

0 W/m

0.00 mm

17:25

30.8 C

1016.8 hpa

36 %

11.3 km/h aus 117

20.9 km/h aus E

14.0 C

30.4 C

30.8 C

30.4 C

0 W/m

0.00 mm

17:30

30.7 C

1016.8 hpa

34 %

9.7 km/h aus 116

19.3 km/h aus S

13.0 C

30.1 C

30.7 C

30.1 C

0 W/m

0.00 mm

17:35

30.7 C

1016.8 hpa

37 %

9.7 km/h aus 116

17.7 km/h aus S

14.4 C

30.5 C

30.7 C

30.5 C

0 W/m

0.00 mm

17:40

30.7 C

1016.8 hpa

37 %

14.5 km/h aus 116

24.1 km/h aus SSE

14.3 C

30.2 C

30.4 C

30.4 C

0 W/m

0.00 mm

17:45

30.5 C

1016.8 hpa

36 %

9.7 km/h aus 117

14.5 km/h aus SSE

13.7 C

30.2 C

30.5 C

30.2 C

0 W/m

0.00 mm

17:50

30.6 C

1016.8 hpa

35 %

11.3 km/h aus 115

20.9 km/h aus S

13.4 C

30.2 C

30.6 C

30.2 C

0 W/m

0.00 mm

17:55

30.3 C

1016.8 hpa

36 %

8.0 km/h aus 116

16.1 km/h aus ESE

13.5 C

30.0 C

30.3 C

30.0 C

0 W/m

0.00 mm

18:00

30.3 C

1016.6 hpa

37 %

8.0 km/h aus 116

11.3 km/h aus SE

14.0 C

30.2 C

30.3 C

30.2 C

0 W/m

0.00 mm

18:05

30.2 C

1016.6 hpa

35 %

9.7 km/h aus 116

19.3 km/h aus SE

13.1 C

29.8 C

30.2 C

29.8 C

0 W/m

0.00 mm

18:10

30.2 C

1016.6 hpa

38 %

9.7 km/h aus 117

14.5 km/h aus S

14.3 C

30.1 C

30.2 C

30.1 C

0 W/m

0.00 mm

18:15

30.2 C

1016.5 hpa

37 %

6.4 km/h aus 112

12.9 km/h aus SE

13.9 C

30.1 C

30.2 C

30.1 C

0 W/m

0.00 mm

18:20

30.1 C

1016.5 hpa

37 %

8.0 km/h aus 114

17.7 km/h aus SSE

13.8 C

29.9 C

30.1 C

29.9 C

0 W/m

0.00 mm

18:25

30.1 C

1016.5 hpa

36 %

8.0 km/h aus 116

16.1 km/h aus SE

13.3 C

29.8 C

30.1 C

29.8 C

0 W/m

0.00 mm

18:30

30.1 C

1016.4 hpa

37 %

6.4 km/h aus 112

14.5 km/h aus SE

13.8 C

29.9 C

30.1 C

29.9 C

0 W/m

0.00 mm

18:35

30.1 C

1016.4 hpa

38 %

6.4 km/h aus 115

11.3 km/h aus SE

14.2 C

29.9 C

30.1 C

29.9 C

0 W/m

0.00 mm

18:40

30.1 C

1016.4 hpa

37 %

8.0 km/h aus 115

14.5 km/h aus SE

13.8 C

29.9 C

30.1 C

29.9 C

0 W/m

0.00 mm

18:45

30.0 C

1016.3 hpa

37 %

11.3 km/h aus 118

20.9 km/h aus SE

13.7 C

29.8 C

30.0 C

29.8 C

0 W/m

0.00 mm

18:50

29.8 C

1016.3 hpa

37 %

9.7 km/h aus 116

19.3 km/h aus SE

13.5 C

29.6 C

29.8 C

29.6 C

0 W/m

0.00 mm

18:55

29.6 C

1016.3 hpa

37 %

9.7 km/h aus 114

17.7 km/h aus SE

13.3 C

29.3 C

29.6 C

29.3 C

0 W/m

0.00 mm

19:00

29.4 C

1016.3 hpa

38 %

9.7 km/h aus 116

16.1 km/h aus E

13.6 C

29.3 C

29.4 C

29.3 C

0 W/m

0.00 mm

19:05

29.3 C

1016.3 hpa

38 %

8.0 km/h aus 117

17.7 km/h aus ESE

13.5 C

29.2 C

29.3 C

29.2 C

0 W/m

0.00 mm

19:10

29.2 C

1016.3 hpa

38 %

9.7 km/h aus 116

17.7 km/h aus ESE

13.4 C

29.1 C

29.2 C

29.1 C

0 W/m

0.00 mm

19:15

29.1 C

1016.3 hpa

39 %

8.0 km/h aus 112

14.5 km/h aus SE

13.7 C

29.1 C

29.1 C

29.1 C

0 W/m

0.00 mm

19:20

28.9 C

1016.3 hpa

38 %

9.7 km/h aus 116

16.1 km/h aus SE

13.2 C

28.9 C

28.9 C

28.9 C

0 W/m

0.00 mm

19:25

28.7 C

1016.3 hpa

40 %

4.8 km/h aus 111

8.0 km/h aus SE

13.7 C

28.7 C

28.7 C

28.7 C

0 W/m

0.00 mm

19:30

28.4 C

1016.3 hpa

40 %

8.0 km/h aus 115

17.7 km/h aus ESE

13.5 C

28.3 C

28.4 C

28.3 C

0 W/m

0.00 mm

19:35

28.1 C

1016.3 hpa

41 %

6.4 km/h aus 116

11.3 km/h aus SE

13.6 C

27.9 C

28.1 C

27.9 C

0 W/m

0.00 mm

19:40

27.8 C

1016.3 hpa

42 %

6.4 km/h aus 114

9.7 km/h aus ESE

13.7 C

27.6 C

27.8 C

27.6 C

0 W/m

0.00 mm

19:45

27.6 C

1016.3 hpa

42 %

4.8 km/h aus 113

11.3 km/h aus E

13.5 C

27.3 C

27.6 C

27.3 C

0 W/m

0.00 mm

19:50

27.3 C

1016.3 hpa

43 %

6.4 km/h aus 116

11.3 km/h aus SE

13.7 C

27.0 C

27.3 C

27.0 C

0 W/m

0.00 mm

19:55

27.1 C

1016.3 hpa

44 %

4.8 km/h aus 115

9.7 km/h aus E

13.8 C

26.8 C

27.1 C

26.8 C

0 W/m

0.00 mm

20:00

26.9 C

1016.3 hpa

44 %

4.8 km/h aus 115

9.7 km/h aus SE

13.7 C

26.7 C

26.9 C

26.7 C

0 W/m

0.00 mm

20:05

26.8 C

1016.3 hpa

44 %

4.8 km/h aus 114

9.7 km/h aus ESE

13.5 C

26.5 C

26.8 C

26.5 C

0 W/m

0.00 mm

20:10

26.6 C

1016.3 hpa

45 %

3.2 km/h aus 113

8.0 km/h aus ESE

13.7 C

26.4 C

26.6 C

26.4 C

0 W/m

0.00 mm

20:15

26.3 C

1016.3 hpa

46 %

3.2 km/h aus 115

8.0 km/h aus ESE

13.7 C

26.2 C

26.3 C

26.2 C

0 W/m

0.00 mm

20:20

25.9 C

1016.3 hpa

46 %

3.2 km/h aus 116

6.4 km/h aus ESE

13.4 C

25.8 C

25.9 C

25.8 C

0 W/m

0.00 mm

20:25

25.8 C

1016.3 hpa

47 %

3.2 km/h aus 112

8.0 km/h aus ESE

13.6 C

25.7 C

25.8 C

25.7 C

0 W/m

0.00 mm

20:30

25.6 C

1016.4 hpa

48 %

3.2 km/h aus 110

6.4 km/h aus ESE

13.7 C

25.4 C

25.6 C

25.4 C

0 W/m

0.00 mm

20:35

25.4 C

1016.4 hpa

48 %

3.2 km/h aus 113

8.0 km/h aus ESE

13.6 C

25.3 C

25.4 C

25.3 C

0 W/m

0.00 mm

20:40

25.3 C

1016.4 hpa

49 %

3.2 km/h aus 114

6.4 km/h aus ESE

13.8 C

25.2 C

25.3 C

25.2 C

0 W/m

0.00 mm

20:45

24.9 C

1016.5 hpa

50 %

1.6 km/h aus 115

4.8 km/h aus ESE

13.8 C

24.8 C

24.9 C

24.8 C

0 W/m

0.00 mm

20:50

24.5 C

1016.5 hpa

51 %

1.6 km/h aus 113

4.8 km/h aus ESE

13.7 C

24.5 C

24.5 C

24.5 C

0 W/m

0.00 mm

20:55

24.2 C

1016.5 hpa

52 %

3.2 km/h aus 110

4.8 km/h aus ESE

13.7 C

24.3 C

24.2 C

24.3 C

0 W/m

0.00 mm

21:00

24.2 C

1016.5 hpa

52 %

3.2 km/h aus 113

8.0 km/h aus ESE

13.7 C

24.3 C

24.2 C

24.3 C

0 W/m

0.00 mm

21:05

24.1 C

1016.5 hpa

52 %

3.2 km/h aus 109

6.4 km/h aus ESE

13.6 C

24.2 C

24.1 C

24.2 C

0 W/m

0.00 mm

21:10

24.1 C

1016.5 hpa

52 %

3.2 km/h aus 110

6.4 km/h aus ESE

13.6 C

24.2 C

24.1 C

24.2 C

0 W/m

0.00 mm

21:15

23.8 C

1016.7 hpa

53 %

1.6 km/h aus 114

6.4 km/h aus ESE

13.6 C

23.9 C

23.8 C

23.9 C

0 W/m

0.00 mm

21:20

23.4 C

1016.7 hpa

55 %

3.2 km/h aus 113

6.4 km/h aus ESE

13.9 C

23.6 C

23.4 C

23.6 C

0 W/m

0.00 mm

21:25

23.3 C

1016.7 hpa

55 %

3.2 km/h aus 111

6.4 km/h aus ESE

13.7 C

23.4 C

23.3 C

23.4 C

0 W/m

0.00 mm

21:30

23.3 C

1016.8 hpa

55 %

3.2 km/h aus 114

6.4 km/h aus ESE

13.8 C

23.4 C

23.3 C

23.4 C

0 W/m

0.00 mm

21:35

23.3 C

1016.8 hpa

55 %

3.2 km/h aus 114

6.4 km/h aus ESE

13.8 C

23.4 C

23.3 C

23.4 C

0 W/m

0.00 mm

21:40

23.2 C

1016.8 hpa

56 %

3.2 km/h aus 115

6.4 km/h aus ESE

13.9 C

23.3 C

23.2 C

23.3 C

0 W/m

0.00 mm

21:45

22.9 C

1016.8 hpa

56 %

3.2 km/h aus 113

6.4 km/h aus ESE

13.7 C

23.0 C

22.9 C

23.0 C

0 W/m

0.00 mm

21:50

22.8 C

1016.8 hpa

57 %

3.2 km/h aus 115

6.4 km/h aus ESE

13.9 C

22.9 C

22.8 C

22.9 C

0 W/m

0.00 mm

21:55

22.7 C

1016.8 hpa

57 %

3.2 km/h aus 112

8.0 km/h aus SE

13.8 C

22.8 C

22.7 C

22.8 C

0 W/m

0.00 mm

22:00

22.7 C

1016.9 hpa

57 %

3.2 km/h aus 114

6.4 km/h aus SE

13.7 C

22.7 C

22.7 C

22.7 C

0 W/m

0.00 mm

22:05

22.6 C

1016.9 hpa

58 %

6.4 km/h aus 109

11.3 km/h aus SE

13.9 C

22.7 C

22.6 C

22.7 C

0 W/m

0.00 mm

22:10

22.6 C

1016.9 hpa

58 %

4.8 km/h aus 114

9.7 km/h aus SE

13.9 C

22.6 C

22.6 C

22.6 C

0 W/m

0.00 mm

22:15

22.6 C

1017.0 hpa

58 %

6.4 km/h aus 113

9.7 km/h aus SE

13.9 C

22.6 C

22.6 C

22.6 C

0 W/m

0.00 mm

22:20

22.5 C

1017.0 hpa

58 %

4.8 km/h aus 106

9.7 km/h aus SE

13.8 C

22.5 C

22.5 C

22.5 C

0 W/m

0.00 mm

22:25

22.6 C

1017.0 hpa

58 %

4.8 km/h aus 113

11.3 km/h aus SE

13.9 C

22.6 C

22.6 C

22.6 C

0 W/m

0.00 mm

22:30

22.4 C

1016.9 hpa

58 %

4.8 km/h aus 104

9.7 km/h aus SE

13.8 C

22.4 C

22.4 C

22.4 C

0 W/m

0.00 mm

22:35

22.4 C

1016.9 hpa

58 %

4.8 km/h aus 117

8.0 km/h aus SE

13.8 C

22.4 C

22.4 C

22.4 C

0 W/m

0.00 mm

22:40

22.4 C

1016.9 hpa

58 %

3.2 km/h aus 107

9.7 km/h aus SE

13.8 C

22.4 C

22.4 C

22.4 C

0 W/m

0.00 mm

22:45

22.4 C

1016.9 hpa

58 %

3.2 km/h aus 112

9.7 km/h aus SSE

13.8 C

22.4 C

22.4 C

22.4 C

0 W/m

0.00 mm

22:50

22.3 C

1016.9 hpa

59 %

4.8 km/h aus 103

8.0 km/h aus SSE

13.9 C

22.3 C

22.3 C

22.3 C

0 W/m

0.00 mm

22:55

22.2 C

1016.9 hpa

59 %

3.2 km/h aus 99

6.4 km/h aus SSE

13.8 C

22.1 C

22.2 C

22.1 C

0 W/m

0.00 mm

23:00

21.9 C

1016.9 hpa

60 %

4.8 km/h aus 109

8.0 km/h aus SSE

13.8 C

21.8 C

21.9 C

21.8 C

0 W/m

0.00 mm

23:05

21.8 C

1016.9 hpa

61 %

3.2 km/h aus 102

4.8 km/h aus SSE

13.9 C

21.6 C

21.8 C

21.6 C

0 W/m

0.00 mm

23:10

21.8 C

1016.9 hpa

61 %

3.2 km/h aus 104

6.4 km/h aus SSE

13.9 C

21.6 C

21.8 C

21.6 C

0 W/m

0.00 mm

23:15

21.8 C

1017.0 hpa

61 %

3.2 km/h aus 92

6.4 km/h aus SSE

13.9 C

21.6 C

21.8 C

21.6 C

0 W/m

0.00 mm

23:20

21.8 C

1017.0 hpa

61 %

4.8 km/h aus 102

8.0 km/h aus SSE

14.0 C

21.7 C

21.8 C

21.7 C

0 W/m

0.00 mm

23:25

21.8 C

1017.0 hpa

61 %

4.8 km/h aus 100

6.4 km/h aus SSE

14.0 C

21.7 C

21.8 C

21.7 C

0 W/m

0.00 mm

23:30

21.8 C

1017.1 hpa

61 %

4.8 km/h aus 99

9.7 km/h aus SSE

14.0 C

21.7 C

21.8 C

21.7 C

0 W/m

0.00 mm

23:35

21.9 C

1017.1 hpa

61 %

4.8 km/h aus 113

9.7 km/h aus SE

14.1 C

21.8 C

21.9 C

21.8 C

0 W/m

0.00 mm

23:40

22.0 C

1017.1 hpa

61 %

4.8 km/h aus 105

9.7 km/h aus SE

14.1 C

21.9 C

22.0 C

21.9 C

0 W/m

0.00 mm

23:45

21.9 C

1017.0 hpa

61 %

4.8 km/h aus 106

8.0 km/h aus SE

14.1 C

21.8 C

21.9 C

21.8 C

0 W/m

0.00 mm

23:50

21.8 C

1017.0 hpa

61 %

4.8 km/h aus 104

9.7 km/h aus SE

14.0 C

21.7 C

21.8 C

21.7 C

0 W/m

0.00 mm

23:55

21.9 C

1017.0 hpa

61 %

3.2 km/h aus 106

8.0 km/h aus SE

14.0 C

21.7 C

21.9 C

21.7 C

0 W/m

0.00 mm